Location: 81360 Arifat, France
(43.7204°N, 2.3408°E)
Time: 22:36:36
(UTC+02:00)

N. Korean satellite - Pass Details

Date: 07 October 2021
Orbit: 450 x 494 km, 97.3° (Epoch: 28 October)

Event Time Altitude Azimuth Distance (km) Brightness Sun altitude
Rises 06:09:47 0° 30° (NNE) 2,571 10.9 -19.8°
Reaches altitude 10° 06:12:31 10° 53° (NE) 1,690 10.3 -19.3°
Maximum altitude 06:14:48 16° 92° (E) 1,367 9.8 -18.9°
Drops below altitude 10° 06:17:05 10° 131° (SE) 1,689 9.8 -18.5°
Sets 06:19:49 0° 154° (SSE) 2,567 10.4 -18.0°
